KK4PWJ-13 Weather Reports


Display with metric or nautical units.
time (UTC)temp
F
wind
direction
speed
MPH
gust
MPH
rain 1hr
in
rain 24hr
in
rain mn
in
humidity
%
barometer
mb
20260507210227 57 24 0.0 0.0 0.00 0.66 0.66 98 1007.9
20260507205724 57 24 0.0 0.0 0.00 0.66 0.66 97 1007.9
20260507205221 57 24 0.0 0.0 0.00 0.66 0.66 97 1008.1
20260507204717 57 23 0.0 0.0 0.00 0.66 0.66 97 1007.9
20260507204215 57 23 0.0 1.0 0.00 0.66 0.66 97 1008.0
20260507203712 57 24 0.0 1.0 0.00 0.66 0.66 97 1007.9
20260507203210 57 24 0.0 0.0 0.00 0.66 0.66 96 1007.4
20260507202706 57 24 0.0 0.0 0.00 0.66 0.66 96 1007.2
20260507202202 58 24 0.0 1.0 0.00 0.66 0.66 96 1007.4
20260507201656 58 52 0.0 1.0 0.00 0.66 0.66 96 1007.4
20260507201154 58 52 0.0 0.0 0.00 0.66 0.66 96 1007.4
20260507200650 59 62 0.0 1.0 0.00 0.66 0.66 97 1007.5
20260507200146 59 62 0.0 1.0 0.00 0.66 0.66 97 1007.6
20260507195643 59 64 1.0 1.0 0.00 0.66 0.66 96 1007.5
20260507195140 59 72 0.0 1.0 0.00 0.66 0.66 96 1007.5
20260507194637 59 72 0.0 0.0 0.00 0.66 0.66 96 1007.3
20260507194132 59 72 0.0 1.0 0.00 0.66 0.66 96 1007.4
20260507193629 59 72 0.0 0.0 0.00 0.66 0.66 97 1007.4
20260507193127 59 72 0.0 0.0 0.00 0.66 0.66 97 1007.5
20260507192623 59 75 0.0 1.0 0.00 0.66 0.66 97 1007.5
20260507192120 58 75 0.0 0.0 0.00 0.66 0.66 97 1007.4
20260507191615 58 105 0.0 1.0 0.00 0.66 0.66 97 1007.6
20260507191112 58 68 0.0 0.0 0.00 0.66 0.66 97 1007.6
20260507190609 58 68 0.0 1.0 0.00 0.66 0.66 97 1007.5
20260507190109 58 137 0.0 1.0 0.00 0.66 0.66 97 1007.7
20260507185607 58 68 0.0 0.0 0.00 0.66 0.66 98 1007.5
20260507185103 58 68 0.0 0.0 0.00 0.66 0.66 98 1007.5
20260507184601 58 68 0.0 1.0 0.00 0.66 0.66 98 1007.6
20260507184058 58 70 0.0 1.0 0.00 0.66 0.66 98 1007.6
20260507183554 58 70 0.0 1.0 0.00 0.66 0.66 98 1007.3
20260507183051 58 71 0.0 1.0 0.00 0.66 0.66 98 1007.5
20260507182548 58 71 0.0 0.0 0.00 0.66 0.66 98 1007.5
20260507182044 58 71 0.0 0.0 0.00 0.66 0.66 98 1007.6
20260507181541 58 71 0.0 0.0 0.00 0.66 0.66 98 1007.9
20260507181037 59 71 0.0 1.0 0.00 0.66 0.66 98 1007.8
20260507180533 59 71 0.0 0.0 0.05 0.66 0.66 98 1007.7
20260507180030 59 71 0.0 0.0 0.05 0.66 0.66 98 1007.3
20260507175526 59 70 1.0 1.0 0.00 0.65 0.65 98 1007.5
20260507175025 59 138 0.0 1.0 0.00 0.65 0.65 98 1007.7
20260507174521 59 135 1.0 2.0 0.00 0.65 0.65 98 1007.7
20260507174019 59 74 0.0 0.0 0.07 0.65 0.65 98 1007.4
20260507173515 60 74 0.0 0.0 0.07 0.65 0.65 98 1007.2
20260507173013 60 74 0.0 1.0 0.05 0.64 0.64 97 1007.2
20260507172509 61 215 0.0 0.0 0.26 0.63 0.63 96 1007.9
20260507172006 61 88 0.0 0.0 0.47 0.62 0.62 95 1007.9
20260507171501 63 353 1.0 2.0 0.31 0.58 0.58 93 1007.5
20260507170959 66 353 1.0 2.0 0.00 0.53 0.53 93 1006.8
20260507170455 67 354 2.0 3.0 0.00 0.53 0.53 99 1006.4
20260507165952 67 172 0.0 0.0 0.00 0.53 0.53 99 1006.1
20260507165448 67 172 0.0 0.0 0.00 0.53 0.53 99 1006.2
20260507164944 67 173 0.0 0.0 0.00 0.53 0.53 99 1006.3
20260507164441 67 140 0.0 0.0 0.00 0.53 0.53 99 1006.3
20260507163937 67 140 0.0 0.0 0.00 0.53 0.53 99 1006.2
20260507163435 66 140 0.0 0.0 0.05 0.53 0.53 99 1006.2
20260507162932 67 140 0.0 0.0 0.05 0.53 0.53 99 1006.7
20260507162427 67 140 0.0 0.0 0.00 0.52 0.52 99 1006.7
20260507161925 66 141 1.0 1.0 0.07 0.52 0.52 99 1006.7
20260507161420 66 140 0.0 0.0 0.07 0.52 0.52 99 1006.6
20260507160918 66 140 0.0 0.0 0.05 0.51 0.51 99 1007.0
20260507160414 66 140 0.0 0.0 0.19 0.51 0.51 99 1007.3
20260507155910 66 140 0.0 0.0 0.14 0.50 0.50 99 1007.8
20260507155406 66 141 0.0 0.0 0.00 0.48 0.48 99 1008.0
20260507154903 66 141 0.0 1.0 0.05 0.48 0.48 99 1008.0
20260507154400 66 142 0.0 0.0 0.07 0.47 0.47 99 1007.8
20260507153857 67 142 0.0 0.0 0.07 0.47 0.47 99 1007.7
20260507153618 66 141 0.0 0.0 0.00 0.46 0.46 99 1008.0
20260507153353 66 141 0.0 0.0 0.00 0.46 0.46 99 1008.0
20260507153215 67 141 0.0 0.0 0.00 0.46 0.46 99 1007.8
20260507152849 67 141 0.0 0.0 0.00 0.46 0.46 99 1007.8
20260507152554 67 141 0.0 0.0 0.05 0.46 0.46 99 1007.2
20260507152346 67 142 0.0 0.0 0.05 0.46 0.46 99 1007.7
20260507151842 67 141 0.0 0.0 0.05 0.46 0.46 99 1007.2
20260507151338 67 142 0.0 0.0 0.00 0.45 0.45 99 1007.4
20260507150836 67 141 0.0 0.0 0.00 0.45 0.45 99 1007.2
20260507150332 67 141 0.0 0.0 0.07 0.45 0.45 99 1007.2
20260507145828 66 141 0.0 0.0 0.12 0.45 0.45 99 1007.5
20260507145325 67 132 0.0 0.0 0.05 0.44 0.44 99 1007.6
20260507144822 66 133 0.0 0.0 0.00 0.43 0.43 99 1007.7
20260507144319 66 133 0.0 0.0 0.00 0.43 0.43 99 1007.6
20260507143815 66 133 0.0 0.0 0.00 0.43 0.43 99 1007.3
20260507143313 66 132 0.0 0.0 0.07 0.43 0.43 99 1007.1
20260507142809 66 132 0.0 0.0 0.07 0.43 0.43 99 1006.9
20260507142307 66 132 0.0 0.0 0.05 0.42 0.42 99 1007.0
20260507141802 66 132 0.0 0.0 0.05 0.42 0.42 99 1007.2
20260507141259 66 132 0.0 0.0 0.07 0.41 0.41 99 1007.2
20260507140755 66 132 0.0 0.0 0.07 0.41 0.41 99 1007.4
20260507140253 66 132 0.0 0.0 0.05 0.40 0.40 99 1007.3
20260507135750 66 132 0.0 0.0 0.00 0.39 0.39 99 1007.4
20260507135247 66 132 0.0 0.0 0.07 0.39 0.39 99 1007.3
20260507134743 66 132 0.0 0.0 0.07 0.39 0.39 99 1007.5
20260507134240 66 181 0.0 0.0 0.05 0.38 0.38 99 1007.5
20260507133736 66 181 0.0 0.0 0.12 0.38 0.38 99 1007.7
20260507133233 65 183 0.0 0.0 0.14 0.37 0.37 99 1008.0
20260507132730 65 183 0.0 0.0 0.12 0.36 0.36 99 1008.1
20260507132227 65 183 0.0 0.0 0.12 0.35 0.35 99 1008.4
20260507131724 65 183 0.0 0.0 0.07 0.34 0.34 99 1008.3
20260507131221 65 183 0.0 0.0 0.00 0.33 0.33 99 1008.4
20260507130717 65 183 0.0 0.0 0.00 0.33 0.33 99 1008.1
20260507130216 65 184 0.0 0.0 0.05 0.33 0.33 99 1008.2
20260507125714 65 168 0.0 0.0 0.05 0.33 0.33 99 1008.1
20260507125211 65 190 0.0 0.0 0.00 0.32 0.32 99 1008.0
20260507124707 64 190 0.0 0.0 0.12 0.32 0.32 99 1008.0
20260507124205 64 190 0.0 0.0 0.12 0.32 0.32 99 1008.0
20260507123703 64 191 0.0 0.0 0.12 0.32 0.32 99 1007.8
20260507123200 64 1 0.0 0.0 0.05 0.31 0.31 99 1008.1
20260507122655 64 1 0.0 0.0 0.00 0.30 0.30 99 1008.1
20260507122151 64 1 0.0 0.0 0.00 0.30 0.30 99 1008.1
20260507121647 64 1 0.0 0.0 0.00 0.30 0.30 99 1008.1
20260507121143 64 1 0.0 0.0 0.00 0.30 0.30 99 1008.0
20260507120640 64 1 0.0 0.0 0.00 0.30 0.30 99 1007.9
20260507120136 64 1 0.0 0.0 0.07 0.30 0.30 99 1007.6
20260507115632 64 1 0.0 0.0 0.07 0.30 0.30 99 1007.8
20260507115128 64 1 0.0 0.0 0.00 0.29 0.29 99 1007.7
20260507114624 64 1 0.0 0.0 0.00 0.29 0.29 99 1007.8
20260507114122 64 1 0.0 0.0 0.00 0.29 0.29 99 1007.9
20260507113619 64 1 0.0 0.0 0.00 0.29 0.29 99 1008.0
20260507113116 64 1 0.0 0.0 0.00 0.29 0.29 99 1007.7
20260507112614 64 1 0.0 0.0 0.00 0.29 0.29 99 1008.1
20260507112110 64 1 0.0 0.0 0.00 0.29 0.29 99 1008.3
20260507111608 64 1 0.0 0.0 0.00 0.29 0.29 99 1008.1
20260507111104 64 1 0.0 0.0 0.05 0.29 0.29 99 1008.2
20260507110600 64 1 0.0 0.0 0.05 0.29 0.29 99 1008.1
20260507110057 64 1 0.0 0.0 0.00 0.28 0.28 99 1008.2
20260507105554 64 1 0.0 0.0 0.00 0.28 0.28 99 1008.2
20260507105050 64 1 0.0 0.0 0.00 0.28 0.28 99 1008.3
20260507104547 64 1 0.0 0.0 0.00 0.28 0.28 99 1008.3
20260507104043 64 1 0.0 0.0 0.00 0.28 0.28 99 1007.9
20260507103540 64 1 0.0 0.0 0.12 0.28 0.28 99 1007.9
20260507103037 64 1 0.0 0.0 0.26 0.28 0.28 99 1007.8
20260507102533 64 1 0.0 0.0 0.26 0.26 0.26 99 1007.9
20260507102031 64 1 0.0 0.0 0.24 0.24 0.24 99 1007.6
20260507101525 64 1 0.0 0.0 0.12 0.22 0.22 99 1007.8
20260507101021 64 1 0.0 0.0 0.12 0.20 0.20 99 1008.0
20260507100519 64 1 0.0 0.0 0.12 0.20 0.20 99 1007.7
20260507100017 64 1 0.0 0.0 0.00 0.18 0.18 99 1007.7
20260507095515 64 1 0.0 0.0 0.00 0.18 0.18 99 1007.6
20260507095011 64 1 0.0 0.0 0.00 0.18 0.18 99 1007.9
20260507094507 64 1 0.0 0.0 0.00 0.18 0.18 99 1007.9
20260507094005 64 1 0.0 0.0 0.00 0.18 0.18 99 1007.9
20260507093502 64 1 0.0 0.0 0.00 0.18 0.18 99 1007.9
20260507093000 64 1 0.0 0.0 0.00 0.18 0.18 99 1007.8
20260507092456 64 1 0.0 0.0 0.00 0.18 0.18 99 1007.8
20260507091953 64 1 0.0 0.0 0.00 0.18 0.18 99 1007.9
20260507091450 64 1 0.0 0.0 0.00 0.18 0.18 99 1007.8
20260507090945 64 1 0.0 0.0 0.00 0.18 0.18 99 1008.0
20260507090442 64 1 0.0 0.0 0.00 0.18 0.18 99 1008.0
20260507085938 64 1 0.0 0.0 0.00 0.18 0.18 99 1007.9
20260507085436 64 1 0.0 0.0 0.00 0.18 0.18 99 1007.8
20260507084932 64 1 0.0 1.0 0.05 0.18 0.18 99 1008.2
20260507084429 64 1 0.0 0.0 0.05 0.18 0.18 99 1008.1
20260507083926 64 1 0.0 0.0 0.00 0.17 0.17 99 1008.0
20260507083423 64 1 0.0 0.0 0.00 0.17 0.17 99 1008.2
20260507082919 64 1 0.0 0.0 0.00 0.17 0.17 99 1008.1
20260507082415 64 1 0.0 0.0 0.07 0.17 0.17 99 1008.0
20260507081912 64 1 0.0 0.0 0.07 0.17 0.17 99 1008.4
20260507081408 64 1 0.0 0.0 0.00 0.16 0.16 99 1008.7
20260507080905 64 1 0.0 0.0 0.00 0.16 0.16 99 1008.7
20260507080401 64 1 0.0 0.0 0.00 0.16 0.16 99 1008.7
20260507075857 64 1 0.0 0.0 0.00 0.16 0.16 99 1008.7
20260507075353 64 1 0.0 0.0 0.00 0.16 0.16 99 1008.6
20260507074849 64 1 0.0 0.0 0.00 0.16 0.16 99 1008.4
20260507074347 64 1 0.0 0.0 0.00 0.16 0.16 99 1008.0
20260507073844 64 1 0.0 0.0 0.00 0.16 0.16 99 1008.0
20260507073340 64 1 0.0 0.0 0.00 0.16 0.16 99 1008.2
20260507072838 64 1 0.0 0.0 0.00 0.16 0.16 99 1008.4
20260507072335 64 1 0.0 0.0 0.00 0.16 0.16 99 1008.7
20260507071833 64 1 0.0 0.0 0.00 0.16 0.16 99 1008.9
20260507071330 64 1 0.0 1.0 0.00 0.16 0.16 99 1009.0
20260507070826 64 1 0.0 1.0 0.00 0.16 0.16 99 1009.2
20260507070323 64 1 0.0 0.0 0.00 0.16 0.16 99 1009.1
20260507065820 64 1 0.0 0.0 0.00 0.16 0.16 99 1009.1
20260507065316 64 1 0.0 0.0 0.00 0.16 0.16 99 1009.0
20260507064814 64 1 0.0 0.0 0.00 0.16 0.16 99 1009.2
20260507064312 64 1 0.0 0.0 0.00 0.16 0.16 99 1009.0
20260507063810 64 1 0.0 0.0 0.00 0.16 0.16 99 1008.8
20260507063307 64 0 0.0 0.0 0.00 0.16 0.16 99 1009.5
20260507062803 64 0 0.0 0.0 0.00 0.16 0.16 99 1009.9
20260507062300 64 0 0.0 0.0 0.00 0.16 0.16 99 1009.9
20260507061758 64 0 0.0 0.0 0.00 0.16 0.16 99 1010.1
20260507061256 64 0 0.0 0.0 0.00 0.16 0.16 99 1009.9
20260507060754 64 0 0.0 0.0 0.00 0.16 0.16 99 1010.1
20260507060250 64 0 0.0 0.0 0.00 0.16 0.16 99 1009.8
20260507055747 64 1 0.0 0.0 0.00 0.16 0.16 99 1009.1
20260507055242 64 1 0.0 0.0 0.00 0.16 0.16 99 1009.7
20260507054739 65 1 0.0 0.0 0.00 0.16 0.16 99 1009.9
20260507054235 65 1 0.0 0.0 0.00 0.16 0.16 99 1009.9
20260507053733 65 1 0.0 0.0 0.00 0.16 0.16 99 1009.9
20260507053230 65 1 0.0 0.0 0.00 0.16 0.16 99 1010.0
20260507052729 65 1 0.0 0.0 0.00 0.16 0.16 99 1010.1
20260507052225 65 359 0.0 0.0 0.00 0.16 0.16 99 1009.8
20260507051723 65 359 0.0 0.0 0.00 0.16 0.16 98 1009.7
20260507051220 65 354 0.0 0.0 0.00 0.16 0.16 98 1009.7
20260507050717 65 353 0.0 0.0 0.05 0.16 0.16 98 1010.0
20260507050214 65 353 0.0 1.0 0.05 0.16 0.16 98 1010.2
20260507045710 65 353 1.0 2.0 0.07 0.15 0.15 98 1010.0
20260507045206 65 282 1.0 2.0 0.05 0.14 0.14 98 1008.2
20260507044704 65 51 1.0 2.0 0.24 0.14 0.14 98 1009.0
20260507044200 65 100 0.0 1.0 0.24 0.12 0.12 98 1009.5
20260507043657 65 145 2.0 3.0 0.19 0.10 0.10 98 1009.1
20260507043154 65 263 0.0 0.0 0.07 0.08 0.08 98 1010.5
20260507042650 65 256 2.0 2.0 0.05 0.07 0.07 98 1010.1
20260507042145 66 135 2.0 2.0 0.07 0.06 0.06 98 1010.1
20260507041642 66 83 0.0 1.0 0.19 0.06 0.06 98 1010.9
20260507041138 66 81 0.0 1.0 0.28 0.05 0.05 98 1011.3
20260507040636 66 40 1.0 1.0 0.19 0.02 0.02 98 1011.6
20260507040132 66 56 1.0 2.0 0.19 0.00 0.00 98 1011.5
20260507035628 65 339 0.0 0.0 0.05 0.08 0.08 98 1011.8
20260507035124 65 157 0.0 0.0 0.00 0.07 0.07 98 1011.6
20260507034621 65 157 0.0 0.0 0.00 0.07 0.07 98 1011.6
20260507034119 65 157 0.0 0.0 0.00 0.07 0.07 98 1011.3
20260507033617 65 157 0.0 0.0 0.07 0.07 0.07 98 1011.1
20260507033114 65 156 0.0 0.0 0.12 0.07 0.07 98 1010.9
20260507032611 65 154 0.0 0.0 0.12 0.06 0.06 97 1010.8
20260507032107 65 154 0.0 1.0 0.07 0.05 0.05 97 1010.7
20260507031604 65 153 0.0 0.0 0.00 0.04 0.04 97 1010.2
20260507031101 65 154 0.0 0.0 0.00 0.04 0.04 97 1010.3
20260507030557 65 154 0.0 0.0 0.00 0.04 0.04 97 1010.5
20260507030055 65 154 0.0 0.0 0.00 0.04 0.04 97 1010.4
20260507025552 65 154 0.0 0.0 0.00 0.04 0.04 97 1010.7
20260507025049 65 154 0.0 0.0 0.05 0.04 0.04 97 1010.6
20260507024547 65 154 0.0 0.0 0.05 0.04 0.04 97 1010.4
20260507024043 65 154 0.0 0.0 0.07 0.03 0.03 96 1010.5
20260507023539 65 154 0.0 0.0 0.07 0.03 0.03 96 1010.2
20260507023037 65 154 0.0 0.0 0.00 0.02 0.02 96 1010.0
20260507022534 65 154 0.0 0.0 0.00 0.02 0.02 96 1009.8
20260507022029 65 154 0.0 0.0 0.00 0.02 0.02 96 1009.9
20260507021525 65 154 0.0 0.0 0.00 0.02 0.02 96 1009.8
20260507021022 65 154 0.0 0.0 0.00 0.02 0.02 96 1009.8
20260507020519 65 154 0.0 0.0 0.00 0.02 0.02 95 1009.7
20260507020016 65 154 0.0 0.0 0.00 0.02 0.02 95 1009.7
20260507015514 66 154 0.0 0.0 0.00 0.02 0.02 95 1009.7
20260507015012 66 154 0.0 0.0 0.00 0.02 0.02 94 1009.7
20260507014508 66 154 0.0 0.0 0.00 0.02 0.02 94 1009.5
20260507014004 66 154 0.0 0.0 0.00 0.02 0.02 94 1009.9
20260507013500 66 154 0.0 0.0 0.00 0.02 0.02 94 1009.7
20260507012958 66 154 0.0 0.0 0.00 0.02 0.02 94 1009.9
20260507012454 66 154 0.0 0.0 0.00 0.02 0.02 94 1010.0
20260507011951 66 154 0.0 0.0 0.00 0.02 0.02 94 1009.8
20260507011448 66 154 0.0 0.0 0.00 0.02 0.02 93 1009.7
20260507010943 66 154 0.0 0.0 0.00 0.02 0.02 93 1009.7
20260507010438 67 154 0.0 0.0 0.00 0.02 0.02 94 1009.7
20260507005936 67 154 0.0 0.0 0.00 0.02 0.02 93 1009.7
20260507005433 67 154 0.0 0.0 0.00 0.02 0.02 93 1009.7
20260507004930 67 154 0.0 0.0 0.00 0.02 0.02 93 1009.9
20260507004426 67 154 0.0 0.0 0.00 0.02 0.02 93 1009.9
20260507003924 67 154 0.0 0.0 0.00 0.02 0.02 93 1009.8
20260507003418 67 154 0.0 0.0 0.00 0.02 0.02 93 1009.9
20260507002914 68 154 0.0 0.0 0.00 0.02 0.02 92 1009.5
20260507002410 68 154 0.0 0.0 0.00 0.02 0.02 91 1009.5
20260507001908 68 154 0.0 0.0 0.00 0.02 0.02 91 1009.8
20260507001404 68 154 0.0 0.0 0.00 0.02 0.02 91 1009.8
20260507000902 68 154 0.0 0.0 0.00 0.02 0.02 91 1009.7
20260507000357 68 154 0.0 0.0 0.00 0.02 0.02 91 1009.5
20260506235853 68 154 0.0 0.0 0.00 0.02 0.02 90 1009.4
20260506235350 68 154 0.0 0.0 0.00 0.02 0.02 89 1009.5
20260506234846 68 154 0.0 0.0 0.00 0.02 0.02 89 1009.4
20260506234344 69 154 0.0 0.0 0.00 0.02 0.02 90 1009.5
20260506233841 69 154 0.0 0.0 0.00 0.02 0.02 90 1009.7
20260506233337 69 154 1.0 1.0 0.00 0.02 0.02 89 1010.0
20260506232834 70 154 0.0 0.0 0.00 0.02 0.02 85 1009.9
20260506232330 70 154 0.0 0.0 0.00 0.02 0.02 85 1010.0
20260506231827 70 154 0.0 0.0 0.00 0.02 0.02 84 1010.0
20260506231324 70 154 0.0 0.0 0.00 0.02 0.02 84 1009.8
20260506230822 70 154 0.0 0.0 0.00 0.02 0.02 84 1009.9
20260506230318 70 154 0.0 0.0 0.00 0.02 0.02 84 1009.9
20260506225814 71 154 0.0 1.0 0.00 0.02 0.02 83 1009.7
20260506225312 71 154 0.0 0.0 0.00 0.02 0.02 81 1009.9
20260506224809 72 154 0.0 0.0 0.00 0.02 0.02 80 1010.0
20260506224306 72 154 0.0 0.0 0.00 0.02 0.02 79 1010.0
20260506223802 72 154 0.0 1.0 0.00 0.02 0.02 77 1009.9
20260506223257 72 154 1.0 2.0 0.00 0.02 0.02 79 1009.9
20260506222754 72 154 0.0 0.0 0.00 0.02 0.02 78 1010.2
20260506222250 72 154 0.0 1.0 0.00 0.02 0.02 80 1009.8
20260506221748 72 155 0.0 0.0 0.00 0.02 0.02 79 1009.8
20260506221246 72 154 0.0 0.0 0.00 0.02 0.02 77 1009.7
20260506220743 72 154 0.0 0.0 0.00 0.02 0.02 79 1009.4
20260506220238 73 154 0.0 0.0 0.00 0.02 0.02 77 1009.5
20260506215735 73 154 0.0 0.0 0.00 0.02 0.02 76 1009.7
20260506215230 73 121 0.0 2.0 0.00 0.02 0.02 75 1009.3
20260506214727 73 145 0.0 1.0 0.00 0.02 0.02 76 1009.4
20260506214224 73 149 2.0 2.0 0.00 0.02 0.02 77 1009.5
20260506213723 72 95 1.0 2.0 0.00 0.02 0.02 77 1009.8
20260506213220 72 21 2.0 3.0 0.00 0.02 0.02 77 1009.5
20260506212717 72 155 0.0 1.0 0.00 0.02 0.02 78 1009.8
20260506212212 72 139 1.0 1.0 0.00 0.02 0.02 78 1009.8
20260506211708 72 101 1.0 3.0 0.00 0.02 0.02 77 1009.7
20260506211204 72 163 2.0 3.0 0.00 0.02 0.02 78 1010.0
20260506210701 72 210 1.0 2.0 0.00 0.02 0.02 80 1010.0